Lid_Strength_Index
1 2 4 4 7 8 10 10 7 8 7 6 5 6 7 6 7 9 1 0 0 0 -1 -1 -1 -1 -1 -1 -1 -1 -1 -1 -1 -1 -1 -1 -1 -1 -1 -1 -1 -1 -1 -1 -1 -1 -1 -1 -1
1 4 5 6 9 12 10 9 8 7 7 6 5 5 6 7 4 4 3 0 -0 -0 -1 -1 -1 -1 -1 -1 -1 -1 -1 -1 -1 -1 -1 -1 -1 -1 -1 -1 -1 -1 -1 -1 -1 -1 -1 -1 -1
3 6 7 8 9 11 10 8 8 7 7 7 7 4 5 6 4 3 1 0 -0 -0 -1 -1 -1 -1 -1 -1 -1 -1 -1 -1 -1 -1 -1 -1 -1 -1 -1 -1 -1 -2 -1 -1 -1 -1 -1 -1 -1
3 4 8 10 10 8 8 7 8 7 6 6 5 6 4 2 3 1 0 -0 0 -0 -1 -1 -1 -1 -1 -1 -1 -1 -1 -1 -1 -1 -1 -1 -1 -1 -1 -1 -2 -2 -1 -1 -1 -1 -1 -1 -1
3 4 9 11 10 9 7 6 6 7 7 7 6 6 6 3 1 1 1 0 0 -0 -1 -1 -1 -1 -1 -1 -1 -1 -1 -1 -1 -1 -1 -1 -1 -1 -1 -1 -1 -1 -1 -1 -1 -1 -1 -1 -1
6 5 9 11 11 10 8 6 6 6 7 5 6 6 6 2 2 1 0 0 -0 0 -1 -1 -1 -1 -1 -1 -1 -1 -1 -1 -1 -1 -1 -1 -1 -1 -1 -1 -1 -1 -1 -1 -1 -1 -1 -2 -1
8 8 9 9 10 10 9 6 6 7 6 5 4 7 5 4 2 1 1 0 -0 -0 -0 -1 -1 -1 -1 -1 -1 -1 -1 -1 -1 -1 -1 -1 -1 -1 -2 -2 -1 -1 -1 -1 -1 -1 -2 -2 -2
7 8 10 9 9 9 8 8 6 6 6 3 3 7 7 4 1 1 1 1 0 0 -0 -0 -1 -1 -1 -1 -1 -1 -1 -1 -1 -1 -1 -1 -1 -1 -1 -1 -2 -1 -1 -1 -1 -1 -2 -2 -2
7 10 12 10 9 8 7 8 6 4 5 5 5 5 4 2 1 2 2 2 1 1 0 -0 -0 -1 -1 -1 -1 -1 -1 -1 -1 -1 -1 -1 -1 -1 -1 -2 -1 -1 -1 -1 -1 -2 -2 -1 -2
8 10 11 9 7 7 6 7 8 7 6 6 6 4 3 3 3 3 3 3 2 2 1 0 -0 -0 -1 -1 -1 -1 -1 -1 -1 -1 -2 -1 -2 -1 -1 -1 -1 -1 -1 -2 -2 -2 -1 -1 -2
8 11 9 9 7 6 6 6 7 8 8 5 7 6 4 3 3 3 3 3 2 1 1 0 -0 -1 -0 -0 -1 -1 -1 -1 -1 -1 -2 -2 -1 -1 -1 -1 -1 -2 -1 -1 -1 -1 -1 -1 -1
10 8 8 9 7 6 7 5 6 7 7 4 4 4 4 4 4 3 3 3 2 2 1 0 -0 -0 -1 -1 -1 -1 -0 -1 -1 -1 -2 -1 -1 -1 -1 -1 -1 -1 -1 -1 -1 -1 -1 -1 -1
9 9 8 7 7 7 6 6 5 5 4 4 4 4 4 4 4 3 2 2 2 2 1 1 -0 -0 -0 -0 -0 -1 -0 -1 -1 -1 -1 -1 -1 -0 -1 -1 -1 -1 -1 -1 -1 -1 -1 -1 -1
8 8 8 7 7 7 7 7 7 5 4 4 5 5 4 4 4 3 3 3 2 2 1 0 0 -0 -0 -0 -0 -0 -1 -1 -1 -1 -1 -1 -1 -1 -0 -0 -0 -1 -1 -1 -1 -1 -0 -0 -1
9 10 9 9 7 8 7 9 9 5 4 5 5 5 4 4 3 3 3 2 2 1 1 1 0 -0 -0 -0 -0 -0 -1 -1 -0 -1 -1 -1 -1 -1 -1 -0 -0 -1 -1 -1 -1 -1 -1 -0 -0
11 11 13 10 9 8 8 11 8 5 5 5 5 5 5 4 3 3 2 2 1 1 1 0 0 0 0 0 -0 -0 -0 -0 -0 -1 -1 -1 -1 -1 -1 -0 -0 -1 -1 -1 -0 -0 0 0 0
12 15 14 12 9 9 9 11 8 6 4 5 5 5 4 4 3 2 2 2 1 1 1 1 0 0 0 -0 -0 -0 -0 -0 -0 -1 -1 -1 -1 -1 -1 -0 -1 -1 -1 -0 -0 -0 0 1 0
16 15 14 13 11 10 10 10 8 5 5 5 5 5 4 4 3 2 2 1 1 1 1 1 0 0 -0 -0 -0 -0 -0 -0 -1 -1 -1 -1 -1 -1 -1 -1 -1 -1 -0 0 -0 0 -0 0 1
13 14 14 12 10 11 11 10 7 6 6 6 5 5 4 4 2 2 2 1 1 1 1 1 1 0 0 1 1 1 1 1 0 -0 -1 -1 -1 -1 -1 -0 -0 -0 0 0 -0 -0 1 1 0
13 13 13 11 10 9 10 10 8 6 6 5 5 5 4 4 3 2 2 2 2 2 1 1 1 1 0 1 0 0 1 0 0 -0 -1 -1 -1 -1 -1 -1 -0 -0 0 0 0 0 1 1 0
13 13 12 12 11 9 9 11 10 7 6 5 5 4 4 4 4 3 2 2 2 2 2 1 1 1 0 -0 0 0 -0 0 1 1 0 -0 -1 -1 -1 -1 -0 -0 -0 1 0 0 1 2 1
14 11 11 11 12 14 9 14 10 8 7 6 5 5 4 4 3 3 2 2 2 2 1 1 1 1 0 -0 1 1 2 2 1 0 -0 -0 -1 -1 -1 -1 -0 -0 -0 0 0 0 1 1 3
13 10 10 10 11 10 12 12 10 9 9 7 6 5 4 4 3 3 3 2 1 1 1 1 1 1 0 0 0 1 1 1 1 0 0 -0 -0 -1 -0 -1 -1 0 0 0 0 1 1 1 2
10 11 11 10 11 15 11 12 12 10 8 7 5 5 4 4 3 3 2 2 1 1 1 1 1 1 0 0 0 1 1 1 1 1 1 1 0 -0 -0 -1 -0 -0 -0 0 0 0 0 1 1
10 12 15 16 15 16 11 12 11 8 7 6 6 5 4 4 3 3 3 2 2 2 1 1 1 2 1 1 1 0 1 1 1 1 1 1 1 1 0 -0 -0 -0 -0 -0 -0 0 1 0 1
12 11 14 18 17 15 11 14 11 7 6 5 5 5 4 4 4 3 3 2 2 2 2 1 2 2 1 1 1 1 0 1 2 2 2 2 2 2 0 0 -0 -1 -1 -0 -0 0 0 0 1
12 13 10 13 13 14 13 11 8 7 7 7 6 5 5 4 3 3 3 2 2 2 2 2 2 2 1 1 2 2 2 2 2 2 2 3 2 3 2 2 2 1 1 1 -1 0 0 0 0
10 10 13 12 17 17 14 12 11 10 9 8 7 7 6 5 5 4 4 3 3 2 2 1 1 2 3 3 3 3 2 2 2 2 2 2 2 2 2 2 2 2 2 2 1 2 1 0 0
11 12 12 11 13 15 16 13 9 10 9 8 7 7 7 6 5 5 4 3 3 2 3 3 3 3 3 3 3 4 4 3 3 4 4 3 3 3 3 3 4 4 3 3 2 1 0 1 1
10 11 11 13 15 13 13 14 8 8 8 7 8 7 6 5 5 4 4 3 3 3 3 3 3 4 4 4 5 4 5 5 5 5 5 4 4 4 5 5 5 5 4 2 2 2 1 1 1